Location: Potomac
(46.8816°N, 113.5795°W)
Time: 22:47:00
(UTC+00:00)

JY1SAT - Pass Details

Date: 07 July 2022
Orbit: 564 x 586 km, 97.6° (Epoch: 18 August)

Event Time Altitude Azimuth Distance (km) Brightness Sun altitude
Exits shadow 04:34:24 12° 148° (SSE) 1,812 ? -9.0°
Maximum altitude 04:38:11 53° 73° (ENE) 730 ? -9.4°
Drops below altitude 10° 04:42:15 10° 356° (N) 1,918 ? -9.9°
Sets 04:44:26 0° 352° (N) 2,821 ? -10.1°
